Location: Bremen
(53.0793°N, 8.8017°E)
Time: 00:20:07
(UTC+02:00)

Altair - Pass Details

Date: 16 April 2024
Orbit: 1501 x 1682 km, 47.2° (Epoch: 19 May)

Event Time Altitude Azimuth Distance (km) Brightness Sun altitude
Rises 23:10:51 0° 250° (WSW) 4,884 10.3 -20.3°
Reaches altitude 10° 23:14:05 10° 247° (WSW) 3,878 9.7 -20.6°
Maximum altitude 23:23:43 61° 171° (S) 1,785 7.5 -21.4°
Drops below altitude 10° 23:32:59 10° 94° (E) 3,741 9.2 -22.1°
Sets 23:36:02 0° 91° (E) 4,703 9.8 -22.3°
